ONEWEB-0323 (49106 NORAD) Tracking and Keplerian Element Data

This shows tracking and keplerian element data for the satellite.

Feedback or suggestion? Click here.




ElementValue
Catalog49106
NameONEWEB-0323
Epoch Orbit562
Epoch Day262.16668981
Epoch Year2021
RAAN356.332
Inclination87.3341
Eccentricity0.0021311
Argument of Perigee185.9766
Mean Anonmoly38.3245
Mean Motion15.22357924
Decay Rate-0.00819792
L11 49106U 21075AH 21262.16668981 -.00819792 00000-0 -38212-1 0 9998
L22 49106 87.3341 356.3320 0021311 185.9766 38.3245 15.22357924 5628

Live tracking and technical data element details for ONEWEB-0323 (NORAD 49106). ONEWEB-0323 can be tracked NOW for your location showing map with azimuth and elevation plus other details from your city location.

Track the satellite on the map from your city or location and see movement details for azimuth, elevation, latitude, longitude, range, height, and movement on the map or in text.







IsCatalogInMostPopularTable: catalog: 49106, numindb: 7
Update: records affected: 1



GetName: 49106 ONEWEB-0323

Hit Count: updated at: Fri, 24 Sep 2021 17:40:23 GMT